This is the latest recevied weather packets stored in our database for station/object N3WMC. If no packets are shown the sender has not sent any weather packets the latest 10 day(s).
| Time | Temp. | Humidity | Pressure | Rain* | Wind** | Luminosity | Snow |
|---|---|---|---|---|---|---|---|
| 1777501319 | 15° C | 90% | 1007.5 hPa | 0 mm | - | 54 W/m² | - |
| 1777501018 | 15° C | 91% | 1007.3 hPa | 0 mm | - | 64 W/m² | - |
| 1777500715 | 15° C | 91% | 1007.3 hPa | 0 mm | - | 34 W/m² | - |
| 1777500411 | 15° C | 91% | 1007.4 hPa | 0 mm | - | 33 W/m² | - |
| 1777500108 | 15° C | 91% | 1007.2 hPa | 0 mm | - | 46 W/m² | - |
| 1777499805 | 15° C | 91% | 1007 hPa | 0 mm | - | 48 W/m² | - |
| 1777499501 | 15° C | 91% | 1007 hPa | 0 mm | - | 38 W/m² | - |
| 1777499199 | 15° C | 91% | 1007 hPa | 0 mm | - | 45 W/m² | - |
| 1777498895 | 15° C | 91% | 1007.1 hPa | 0 mm | - | 84 W/m² | - |
| 1777498592 | 15.56° C | 91% | 1007 hPa | 0 mm | - | 102 W/m² | - |
| 1777498288 | 15° C | 91% | 1006.9 hPa | 0 mm | - | 130 W/m² | - |
| 1777497987 | 15° C | 90% | 1006.6 hPa | 0 mm | - | 100 W/m² | - |
| 1777497682 | 15° C | 91% | 1006.9 hPa | 0 mm | - | 97 W/m² | - |
| 1777497379 | 15° C | 91% | 1006.8 hPa | 0 mm | - | 103 W/m² | - |
| 1777497075 | 15° C | 91% | 1007.1 hPa | 0 mm | - | 88 W/m² | - |
| 1777496772 | 15° C | 91% | 1006.8 hPa | 0 mm | - | 50 W/m² | - |
| 1777496469 | 15° C | 92% | 1006.8 hPa | 0 mm | - | 43 W/m² | - |
| 1777496165 | 15° C | 92% | 1007 hPa | 0 mm | - | 33 W/m² | - |
| 1777495861 | 15° C | 92% | 1006.9 hPa | 0 mm | - | 68 W/m² | - |
| 1777495557 | 15° C | 92% | 1007 hPa | 0 mm | - | 72 W/m² | - |
| 1777495253 | 15° C | 93% | 1007 hPa | 0 mm | - | 60 W/m² | - |
| 1777494951 | 15° C | 92% | 1007 hPa | 0 mm | - | 59 W/m² | - |
| 1777494648 | 15° C | 92% | 1006.9 hPa | 0 mm | - | 99 W/m² | - |
| 1777494345 | 15° C | 93% | 1007 hPa | 0 mm | - | 168 W/m² | - |
| 1777494042 | 15° C | 93% | 1006.7 hPa | 0 mm | - | 123 W/m² | - |
* Rain latest hour (hover to see other rain measurements)
** Current wind speed in m/s (hover to see current wind gust speed)